TimePDT,TemperatureF,Dew PointF,Humidity,Sea Level PressureIn,VisibilityMPH,Wind Direction,Wind SpeedMPH,Gust SpeedMPH,PrecipitationIn,Events,Conditions,WindDirDegrees,DateUTC
12:53 AM,66.9,62.1,84,29.92,10.0,Variable,5.8,-,N/A,,Clear,0,2012-10-08 07:53:00
1:53 AM,66.0,62.1,87,29.93,10.0,SW,5.8,-,N/A,,Partly Cloudy,230,2012-10-08 08:53:00
2:05 AM,66.2,62.6,88,29.94,10.0,Calm,Calm,-,N/A,,Mostly Cloudy,0,2012-10-08 09:05:00
2:53 AM,64.9,61.0,87,29.92,10.0,SSE,3.5,-,N/A,,Scattered Clouds,160,2012-10-08 09:53:00
3:45 AM,62.6,60.8,94,29.93,10.0,Calm,Calm,-,N/A,,Mostly Cloudy,0,2012-10-08 10:45:00
3:53 AM,63.0,60.1,90,29.92,10.0,East,3.5,-,N/A,,Mostly Cloudy,100,2012-10-08 10:53:00
4:47 AM,62.6,60.8,94,29.94,10.0,East,4.6,-,N/A,,Mostly Cloudy,90,2012-10-08 11:47:00
4:53 AM,63.0,60.1,90,29.93,10.0,East,4.6,-,N/A,,Mostly Cloudy,80,2012-10-08 11:53:00
5:53 AM,63.0,60.1,90,29.94,10.0,East,3.5,-,N/A,,Mostly Cloudy,90,2012-10-08 12:53:00
6:49 AM,64.4,60.8,88,29.96,8.0,Calm,Calm,-,N/A,Fog,Patches of Fog,0,2012-10-08 13:49:00
6:53 AM,64.9,61.0,87,29.96,8.0,Variable,4.6,-,N/A,Fog,Patches of Fog,0,2012-10-08 13:53:00
7:53 AM,66.0,61.0,84,29.97,7.0,East,3.5,-,N/A,Fog,Patches of Fog,90,2012-10-08 14:53:00
8:53 AM,66.9,61.0,81,29.98,7.0,Variable,3.5,-,N/A,,Overcast,0,2012-10-08 15:53:00
9:53 AM,69.1,60.1,73,29.99,8.0,East,4.6,-,N/A,,Mostly Cloudy,90,2012-10-08 16:53:00
10:53 AM,71.1,60.1,68,29.97,8.0,Variable,3.5,-,N/A,,Overcast,0,2012-10-08 17:53:00
11:53 AM,71.1,60.1,68,29.97,9.0,West,8.1,-,N/A,,Mostly Cloudy,260,2012-10-08 18:53:00
12:20 PM,71.6,60.8,69,29.97,8.0,West,5.8,-,N/A,,Scattered Clouds,260,2012-10-08 19:20:00
12:53 PM,72.0,60.1,66,29.96,9.0,West,8.1,-,N/A,,Scattered Clouds,260,2012-10-08 19:53:00
1:53 PM,72.0,59.0,64,29.94,10.0,West,10.4,-,N/A,,Partly Cloudy,260,2012-10-08 20:53:00
2:53 PM,73.0,60.1,64,29.93,10.0,WSW,12.7,-,N/A,,Partly Cloudy,250,2012-10-08 21:53:00
3:53 PM,72.0,59.0,64,29.93,10.0,West,12.7,-,N/A,,Partly Cloudy,260,2012-10-08 22:53:00
4:53 PM,70.0,61.0,73,29.94,10.0,West,12.7,-,N/A,,Partly Cloudy,280,2012-10-08 23:53:00
5:53 PM,69.1,61.0,75,29.94,10.0,West,13.8,-,N/A,,Scattered Clouds,270,2012-10-09 00:53:00
6:53 PM,68.0,59.0,73,29.94,10.0,West,13.8,-,N/A,,Partly Cloudy,280,2012-10-09 01:53:00
7:53 PM,66.9,60.1,79,29.95,10.0,WSW,9.2,-,N/A,,Clear,250,2012-10-09 02:53:00
8:53 PM,66.9,60.1,79,29.95,10.0,Calm,Calm,-,N/A,,Clear,0,2012-10-09 03:53:00
9:53 PM,66.9,61.0,81,29.96,10.0,WSW,4.6,-,N/A,,Clear,240,2012-10-09 04:53:00
10:53 PM,66.0,61.0,84,29.96,10.0,WSW,5.8,-,N/A,,Clear,240,2012-10-09 05:53:00
11:53 PM,66.0,60.1,81,29.96,10.0,North,3.5,-,N/A,,Clear,360,2012-10-09 06:53:00